This is the latest recevied weather packets stored in our database for station/object DM4WH-13. If no packets are shown the sender has not sent any weather packets the latest 10 day(s).
| Time | Temp. | Humidity | Pressure | Rain* | Wind** | Luminosity | Snow |
|---|---|---|---|---|---|---|---|
| 1777535422 | 11.11° C | 39% | 1034.4 hPa | 0 mm | 0.45 m/s, 240° | - | - |
| 1777535110 | 11.11° C | 37% | 1034.4 hPa | 0 mm | 0.45 m/s, 276° | - | - |
| 1777534822 | 10° C | 35% | 1034.5 hPa | 0 mm | 0.89 m/s, 282° | - | - |
| 1777534510 | 11.11° C | 40% | 1034.6 hPa | 0 mm | 0 m/s | - | - |
| 1777534222 | 10° C | 37% | 1034.6 hPa | 0 mm | 0 m/s | - | - |
| 1777533909 | 8.89° C | 36% | 1034.7 hPa | 0 mm | 0 m/s | - | - |
| 1777533622 | 8.89° C | 41% | 1034.6 hPa | 0 mm | 0.45 m/s, 298° | - | - |
| 1777533310 | 8.89° C | 38% | 1034.6 hPa | 0 mm | 0.45 m/s, 306° | - | - |
| 1777533022 | 8.89° C | 38% | 1034.6 hPa | 0 mm | 0.45 m/s, 292° | - | - |
| 1777532709 | 7.78° C | 43% | 1034.6 hPa | 0 mm | 0 m/s | - | - |
| 1777532421 | 7.78° C | 44% | 1034.6 hPa | 0 mm | 0.45 m/s, 293° | - | - |
| 1777532109 | 7.78° C | 44% | 1034.6 hPa | 0 mm | 0.45 m/s, 276° | - | - |
| 1777531822 | 7.78° C | 47% | 1034.6 hPa | 0 mm | 0.45 m/s, 276° | - | - |
| 1777531509 | 8.89° C | 42% | 1034.6 hPa | 0 mm | 0.45 m/s, 234° | - | - |
| 1777531222 | 8.89° C | 41% | 1034.5 hPa | 0 mm | 0.45 m/s, 202° | - | - |
| 1777530909 | 8.89° C | 40% | 1034.6 hPa | 0 mm | 0 m/s | - | - |
| 1777530622 | 7.78° C | 44% | 1034.5 hPa | 0 mm | 0.45 m/s, 54° | - | - |
| 1777530309 | 7.78° C | 45% | 1034.4 hPa | 0 mm | 0.45 m/s, 54° | - | - |
| 1777530034 | 7.78° C | 42% | 1034.4 hPa | 0 mm | 0.45 m/s, 54° | - | - |
| 1777529722 | 7.78° C | 44% | 1034.4 hPa | 0 mm | 0 m/s | - | - |
| 1777529409 | 7.22° C | 45% | 1034.4 hPa | 0 mm | 0.45 m/s, 36° | - | - |
| 1777529121 | 6.11° C | 49% | 1034.4 hPa | 0 mm | 0 m/s | - | - |
| 1777528809 | 5° C | 52% | 1034.3 hPa | 0 mm | 0 m/s | - | - |
| 1777528522 | 6.11° C | 47% | 1034.3 hPa | 0 mm | 0.45 m/s, 36° | - | - |
| 1777528209 | 7.22° C | 44% | 1034.3 hPa | 0 mm | 0 m/s | - | - |
* Rain latest hour (hover to see other rain measurements)
** Current wind speed in m/s (hover to see current wind gust speed)